Home   Weather   Port of Spain   Past weeks

Flag for Trinidad and Tobago Past Weather in Port of Spain, Trinidad and Tobago — Yesterday and Last 2 Weeks

86 °F

Passing clouds.

Feels Like: 95 °F
Forecast: 80 / 90 °F
Wind: 12 mph from East

Location: Piarco International Airport - Trinidad

Current Time: Oct 28, 2016 at 12:07:39 PM

Latest Report: Oct 28, 2016 at 11:00 AM

Visibility: N/A

Pressure: 29.86 "Hg

Humidity: 70%

Dew Point: 75 °F

Location of Port of SpainLocation

Past Weather in Port of Spain — Graph


Port of Spain Temperature Yesterday

Maximum temperature yesterday: 95 °F (at 1:00 PM)
Minimum temperature yesterday: 77 °F (at 5:00 AM)
Average temperature yesterday: 84 °F

High & Low Weather Summary for the Past Weeks

High97 °F (Oct 17, 2:00 PM)100% (Oct 25, 1:00 AM)29.95 "Hg (Oct 25, 1:00 AM)
Low73 °F (Oct 25, 5:00 AM)44% (Oct 21, 2:00 PM)29.71 "Hg (Oct 25, 3:00 PM)
Average84 °F76%29.84 "Hg
* Reported Oct 13 11:00 AM — Oct 28 11:00 AM, Port of Spain, Weather by CustomWeather, © 2016

Note: Actual official high and low records may vary slightly from our data, if they occured in-between our weather recording intervals... More about our weather records


Port of Spain Weather History for the Previous 24 Hours

Scroll right to see more
Time TempWeatherWind HumidityBarometerVisibility
11:00 AM
Fri, Oct 28
86 °FPassing clouds.12 mph70%29.86 "HgN/A
10:00 AM90 °FScattered showers. Scattered clouds.12 mph63%29.89 "HgN/A
9:00 AM88 °FPassing clouds.6 mph66%29.89 "HgN/A
8:00 AM84 °FPassing clouds.6 mph74%29.89 "HgN/A
5:00 AM77 °FPassing clouds.No wind94%29.80 "HgN/A
4:00 AM77 °FPassing clouds.No wind94%29.77 "HgN/A
2:00 AM77 °FPassing clouds.No wind94%29.77 "HgN/A
1:00 AM79 °FPassing clouds.3 mph89%29.80 "HgN/A
12:00 AM79 °FPassing clouds.5 mph89%29.83 "HgN/A
11:00 PM
Thu, Oct 27
79 °FScattered showers. Passing clouds.5 mph89%29.83 "HgN/A
10:00 PM79 °FPassing clouds.3 mph89%29.83 "HgN/A
9:00 PM81 °FPassing clouds.5 mph89%29.83 "HgN/A
8:00 PM81 °FPassing clouds.3 mph89%29.80 "HgN/A
7:00 PM82 °FPassing clouds.6 mph84%29.77 "HgN/A
6:00 PM82 °FPassing clouds.8 mph79%29.77 "HgN/A
5:00 PM86 °FPassing clouds.9 mph70%29.77 "HgN/A
4:00 PM86 °FPassing clouds.7 mph66%29.77 "HgN/A
3:00 PM91 °FScattered clouds.10 mph59%29.77 "HgN/A
2:00 PM91 °FScattered clouds.13 mph63%29.77 "HgN/A
1:00 PM95 °FScattered showers. Scattered clouds.14 mph50%29.77 "HgN/A
12:00 PM93 °FScattered showers. Partly sunny.13 mph53%29.80 "HgN/A
Weather by CustomWeather, © 2016

See weather overviewHow to use our weather pages